Weather History for PHLI - March, 2012

Change the Weather History Date:

Tuesday, March 20, 2012

  Actual Average Record
Temperature  
Mean Temperature 74 °F 73 °F  
Max Temperature 79 °F 79 °F 83 °F (1964)
Min Temperature 68 °F 67 °F 60 °F (1955)
Degree Days  
Heating Degree Days 0 0  
Month to date heating degree days 0 0  
Since 1 July heating degree days 0 0  
Cooling Degree Days 9 8  
Month to date cooling degree days 153 148  
Year to date cooling degree days 653 543  
Growing Degree Days 24 (Base 50)    
Moisture  
Dew Point 65 °F    
Average Humidity 76    
Maximum Humidity 87    
Minimum Humidity 64    
Precipitation  
Precipitation 0.00 in 0.16 in 1.86 in (1961)
Month to date precipitation 17.75 2.98  
Year to date precipitation 30.96 9.89  
Snow  
Snow 0.00 in - - ()
Month to date snowfall 0.0  
Since 1 July snowfall 0.0  
Snow Depth 0.00 in    
Sea Level Pressure  
Sea Level Pressure 30.07 in    
Wind  
Wind Speed 8 mph (NE)    
Max Wind Speed 13 mph    
Max Gust Speed 15 mph    
Visibility 10 miles    
Events      
T = Trace of Precipitation, MM = Missing Value Source: NWS Daily Summary

Daily Weather History Graph

Daily Weather History Graph

Search for Another Location

Airport or City:

Trip Planner

Search our weather history database for the weather conditions in past years. The results will help you decide how hot, cold, wet, or windy it might be!

Date:

Astronomy

Mar. 20, 2012 Rise Set
Actual Time 6:40 AM HST 6:48 PM HST
Civil Twilight 6:18 AM HST 7:11 PM HST
Nautical Twilight 5:52 AM HST 7:36 PM HST
Astronomical Twilight 5:26 AM HST 8:03 PM HST
Moon 5:20 AM HST (3/20) 5:32 PM HST (3/20)
Length of Visible Light 12h 52m
Length of Day
12h 07m
Waning Crescent, 3% of the Moon is Illuminated
Mar 20
Waning Crescent
Mar 22
New
Mar 30
First Quarter
Apr 6
Full
Apr 13
Last Quarter

Hourly Weather History & Observations

Time (HST) Temp. Dew Point Humidity Pressure Visibility Wind Dir Wind Speed Gust Speed Precip Events Conditions
12:53 AM 71.1 °F 64.9 °F 81% 30.06 in 10.0 mi NW 4.6 mph - N/A   Overcast
1:53 AM 69.1 °F 64.0 °F 84% 30.04 in 10.0 mi NW 3.5 mph - N/A   Mostly Cloudy
2:30 AM 69.8 °F 64.4 °F 83% 30.03 in 10.0 mi WNW 8.1 mph - N/A   Mostly Cloudy
2:44 AM 69.8 °F 64.4 °F 83% 30.03 in 10.0 mi NNW 3.5 mph - N/A   Mostly Cloudy
2:53 AM 70.0 °F 64.9 °F 84% 30.03 in 10.0 mi Variable 3.5 mph - N/A   Mostly Cloudy
3:08 AM 69.8 °F 64.4 °F 83% 30.03 in 10.0 mi West 6.9 mph - N/A   Scattered Clouds
3:53 AM 68.0 °F 64.0 °F 87% 30.01 in 10.0 mi WNW 4.6 mph - N/A   Mostly Cloudy
4:10 AM 69.8 °F 64.4 °F 83% 30.01 in 10.0 mi NW 6.9 mph - N/A   Mostly Cloudy
4:17 AM 69.8 °F 64.4 °F 83% 30.01 in 10.0 mi WNW 6.9 mph - N/A   Mostly Cloudy
4:53 AM 69.1 °F 64.9 °F 87% 30.01 in 10.0 mi Variable 3.5 mph - N/A   Overcast
5:25 AM 71.6 °F 66.2 °F 83% 30.03 in 10.0 mi ENE 6.9 mph - N/A   Scattered Clouds
5:53 AM 72.0 °F 66.0 °F 81% 30.03 in 10.0 mi NE 8.1 mph - N/A   Scattered Clouds
6:06 AM 71.6 °F 66.2 °F 83% 30.04 in 10.0 mi NE 8.1 mph - N/A   Mostly Cloudy
6:50 AM 71.6 °F 64.4 °F 78% 30.05 in 10.0 mi ENE 10.4 mph - N/A   Mostly Cloudy
6:53 AM 72.0 °F 64.9 °F 78% 30.05 in 10.0 mi ENE 9.2 mph - N/A   Mostly Cloudy
7:01 AM 73.4 °F 64.4 °F 73% 30.06 in 10.0 mi ENE 10.4 mph - N/A   Mostly Cloudy
7:11 AM 73.4 °F 64.4 °F 73% 30.06 in 10.0 mi ENE 10.4 mph - N/A   Scattered Clouds
7:28 AM 73.4 °F 64.4 °F 73% 30.06 in 10.0 mi ENE 11.5 mph - N/A   Mostly Cloudy
7:37 AM 73.4 °F 64.4 °F 73% 30.06 in 10.0 mi ENE 9.2 mph - N/A   Scattered Clouds
7:53 AM 73.0 °F 64.0 °F 73% 30.06 in 10.0 mi East 9.2 mph - N/A   Partly Cloudy
8:53 AM 75.9 °F 64.9 °F 69% 30.07 in 10.0 mi ENE 10.4 mph - N/A   Partly Cloudy
9:34 AM 75.2 °F 64.4 °F 69% 30.09 in 10.0 mi ENE 9.2 mph - N/A   Mostly Cloudy
9:53 AM 77.0 °F 64.9 °F 66% 30.09 in 10.0 mi ENE 10.4 mph - N/A   Overcast
9:59 AM 77.0 °F 64.4 °F 65% 30.10 in 10.0 mi ENE 9.2 mph - N/A   Partly Cloudy
10:53 AM 77.0 °F 64.9 °F 66% 30.10 in 10.0 mi NE 9.2 mph - N/A   Partly Cloudy
11:00 AM 77.0 °F 64.4 °F 65% 30.10 in 10.0 mi NE 9.2 mph - N/A   Overcast
11:53 AM 78.1 °F 66.0 °F 66% 30.10 in 10.0 mi NE 9.2 mph - N/A   Overcast
12:23 PM 78.8 °F 66.2 °F 65% 30.09 in 10.0 mi NE 10.4 mph - N/A   Mostly Cloudy
12:53 PM 78.1 °F 66.9 °F 68% 30.08 in 10.0 mi NE 9.2 mph - N/A   Scattered Clouds
1:53 PM 78.1 °F 66.0 °F 66% 30.06 in 10.0 mi ENE 11.5 mph - N/A   Scattered Clouds
2:53 PM 79.0 °F 66.9 °F 66% 30.05 in 10.0 mi ENE 10.4 mph - N/A   Scattered Clouds
3:53 PM 75.9 °F 66.0 °F 71% 30.05 in 10.0 mi ENE 11.5 mph - N/A   Scattered Clouds
4:53 PM 75.0 °F 66.0 °F 73% 30.06 in 10.0 mi ENE 11.5 mph - N/A   Mostly Cloudy
5:53 PM 75.0 °F 66.0 °F 73% 30.06 in 10.0 mi ENE 12.7 mph - N/A   Scattered Clouds
6:53 PM 73.0 °F 64.9 °F 76% 30.08 in 10.0 mi NE 12.7 mph - N/A   Mostly Cloudy
7:19 PM 73.4 °F 64.4 °F 73% 30.10 in 10.0 mi NE 10.4 mph - N/A   Mostly Cloudy
7:43 PM 73.4 °F 64.4 °F 73% 30.11 in 10.0 mi NE 12.7 mph - N/A   Mostly Cloudy
7:53 PM 73.0 °F 64.9 °F 76% 30.10 in 10.0 mi NE 11.5 mph - N/A   Scattered Clouds
8:53 PM 73.0 °F 64.9 °F 76% 30.12 in 10.0 mi NE 12.7 mph - N/A   Partly Cloudy
9:53 PM 73.0 °F 64.0 °F 73% 30.13 in 10.0 mi NE 13.8 mph - N/A   Scattered Clouds
10:53 PM 73.0 °F 64.9 °F 76% 30.14 in 10.0 mi NE 12.7 mph - N/A   Scattered Clouds
11:53 PM 73.0 °F 64.9 °F 76% 30.13 in 10.0 mi NE 16.1 mph - N/A   Scattered Clouds